Flag for South Korea Weather past 2 weeks in Cheongju, South Korea

Now
66 °F

Fog.


Feels Like: 66 °F
Forecast: 69 / 85 °F
Wind: 1 mph from Northeast

Location: Chongju Ab

Current Time: Jul 27, 2014 at 4:19:37 AM

Latest Report: Jul 27, 2014 at 3:00 AM


Visibility: 2 mi

Pressure: 29.89 "Hg

Humidity: 88%

Dew point: 63 °F

Location of CheongjuLocation

Historic Weather in Cheongju — Graph

°F

Cheongju temperature yesterday

Maximum temperature yesterday: 82 °F (at 1:00 AM)
Minimum temperature yesterday: 68 °F (at 11:00 PM)
Average temperature yesterday: 76 °F

Past Weeks' High & Low Weather Summary

 TemperatureHumidityPressure
High93 °F (Jul 25, 2:00 PM)94% (Jul 13, 5:00 AM)29.95 "Hg (Jul 13, 5:00 AM)
Low64 °F (Jul 27, 2:45 AM)49% (Jul 16, 3:00 PM)29.59 "Hg (Jul 12, 6:50 PM)
Average77 °F77%29.77 "Hg
* Reported Jul 12 3:00 AM — Jul 27 3:00 AM, Cheongju, Weather by CustomWeather, © 2014

Note: Actual official high and low records may vary slightly from our data, if they occured in-between our weather recording intervals... More about our weather records

Advertising

Cheongju weather history for previous 24 hours

 ConditionsComfort  
Time TempWeatherWind HumidityBarometerVisibility
3:00 AM
Jul 27
66 °FFog.1 mph88%29.89 "Hg2 mi
2:45 AM64 °FFog.1 mph94%29.89 "Hg2 mi
2:00 AM66 °FFog.3 mph88%29.86 "Hg3 mi
1:00 AM68 °FFog.5 mph88%29.86 "Hg3 mi
12:00 AM68 °FFog.5 mph88%29.86 "Hg3 mi
11:00 PM
Jul 26
68 °FPassing clouds.7 mph83%29.86 "Hg4 mi
10:00 PM70 °FPassing clouds.8 mph83%29.86 "Hg5 mi
9:00 PM70 °FPassing clouds.6 mph83%29.83 "Hg5 mi
8:00 PM72 °FPassing clouds.8 mph78%29.80 "HgN/A
7:00 PM75 °FScattered clouds.12 mph65%29.80 "HgN/A
6:00 PM79 °FPartly sunny.13 mph58%29.77 "HgN/A
5:00 PM77 °FBroken clouds.14 mph65%29.77 "HgN/A
4:00 PM77 °FBroken clouds.16 mph65%29.77 "HgN/A
3:00 PM81 °FBroken clouds.14 mph62%29.77 "HgN/A
2:00 PM79 °FBroken clouds.14 mph61%29.77 "HgN/A
1:00 PM77 °FBroken clouds.15 mph69%29.77 "HgN/A
12:00 PM77 °FBroken clouds.13 mph74%29.77 "HgN/A
11:00 AM75 °FPartly sunny.14 mph78%29.77 "HgN/A
10:00 AM73 °FMostly cloudy.16 mph89%29.80 "HgN/A
9:00 AM75 °FMore clouds than sun.14 mph83%29.74 "HgN/A
8:00 AM73 °FLight rain. More clouds than sun.13 mph89%29.74 "Hg6 mi
7:00 AM75 °FMore clouds than sun.18 mph78%29.71 "HgN/A
6:00 AM77 °FOvercast.28 mph74%29.71 "HgN/A
Weather by CustomWeather, © 2014

See weather overviewHow to use our weather pages